Hourly Data Report for April 29, 2021

NANAIMO A
BRITISH COLUMBIA
Current Station Operator: NAVCAN

49°03'16.000" N
123°52'12.000" W
28.00 m
1025365
YCD

Download Data

Hourly Data (April 2021)
Hourly Data Report for April 29, 2021
TIME
LST
Temp Definition
°C
Dew Point Definition
°C
Rel Hum Definition
%
Precip. Amount Definition
mm

Wind Dir Definition
10's deg

Wind Spd Definition
km/h
Visibility Definition
km
Stn Press Definition
kPa
Hmdx Definition


Wind Chill Definition


Weather Definition


00:00 9.1 9.1 100 LegendMM 31 2 LegendMM 102.32     LegendNANA
01:00 9.3 9.1 99 LegendMM 30 1 LegendMM 102.31     LegendNANA
02:00 9.2 9.1 99 LegendMM 15 3 LegendMM 102.25     LegendNANA
03:00 8.7 8.7 100 LegendMM 25 4 LegendMM 102.23     LegendNANA
04:00 8.4 8.4 100 LegendMM 15 3 LegendMM 102.19     LegendNANA
05:00 8.7 8.7 100 LegendMM 20 3 LegendMM 102.15     LegendNANA
06:00 9.0 9.0 100 LegendMM 30 2 LegendMM 102.14     LegendNANA
07:00 9.9 8.9 93 LegendMM 28 1 LegendMM 102.13     LegendNANA
08:00 11.2 8.8 85 LegendMM 21 1 LegendMM 102.14     LegendNANA
09:00 12.6 9.0 79 LegendMM 25 2 LegendMM 102.11     LegendNANA
10:00 14.6 9.5 71 LegendMM 11 3 LegendMM 102.04     LegendNANA
11:00 15.8 8.5 61 LegendMM 7 10 LegendMM 102.03     LegendNANA
12:00 16.5 9.5 63 LegendMM 9 11 LegendMM 101.94     LegendNANA
13:00 17.1 8.9 58 LegendMM 8 13 LegendMM 101.89     LegendNANA
14:00 18.4 9.9 57 LegendMM 8 13 LegendMM 101.85     LegendNANA
15:00 18.8 9.2 54 LegendMM 9 8 LegendMM 101.78     LegendNANA
16:00 18.2 9.7 57 LegendMM 8 8 LegendMM 101.75     LegendNANA
17:00 17.5 8.7 56 LegendMM 8 10 LegendMM 101.71     LegendNANA
18:00 16.5 8.5 59 LegendMM 8 10 LegendMM 101.66     LegendNANA
19:00 17.3 -2.0 27 LegendMM 24 12 LegendMM 101.66     LegendNANA
20:00 16.3 -2.3 28 LegendMM 23 24 LegendMM 101.74     LegendNANA
21:00 15.1 0.7 37 LegendMM 22 13 LegendMM 101.87     LegendNANA
22:00 13.8 3.5 50 LegendMM 19 11 LegendMM 101.83     LegendNANA
23:00 13.4 5.3 58 LegendMM 29 7 LegendMM 101.80     LegendNANA

Notes on Data Quality.

Legend

  • E = Estimated
  • M = Missing
  • NA = Not Available*
  • [empty] = Indicates an unobserved value
Date modified: